Location: Suburban Lights Observatory
(43.1572°N, 89.2764°W)
Time: 14:30:13
(UTC-06:00)

Daily predictions for brighter satellites

Satellite Brightness Start Highest point End
(mag) Time Altitude Azimuth Time Altitude Azimuth Time Altitude Azimuth
Cosmos 2016 Rocket 4.5 16:48:07 10° SSW 16:54:24 68° W 17:00:39 10° N
CSL-04 Rocket 3.7 16:52:05 10° SSE 16:57:17 61° ENE 17:02:34 10° N
Cosmos 1703 Rocket 4.5 16:53:40 10° SSE 16:57:31 29° E 17:01:22 10° NNE
Tsikada Rocket 4.0 16:51:49 10° N 16:58:00 88° E 17:04:12 10° S
Cosmos 1484 Rocket 3.1 16:55:29 10° SE 16:59:10 43° ENE 17:02:56 10° N
Cosmos 1340 3.5 16:55:45 10° SSW 16:59:26 53° WNW 17:03:08 10° N
Cosmos 2082 Rocket 2.7 16:57:54 10° NNW 17:03:14 39° ENE 17:08:29 10° SE
Cosmos 1486 Rocket 4.1 16:58:14 10° S 17:03:21 59° ESE 17:08:31 10° NNE
IRAS Rocket 4.2 16:58:50 10° SSE 17:04:22 85° ENE 17:09:55 10° NNW
Cosmos 1933 4.4 17:01:35 10° SSW 17:05:29 49° WNW 17:09:25 10° N
CENTAUR R/B 3.4 17:00:30 10° WSW 17:06:26 48° NW 17:13:13 10° NNE
ERS-2 3.4 17:05:49 10° ESE 17:08:38 21° ENE 17:11:28 10° NNE
COSMOS 2455 3.3 17:04:25 10° SW 17:10:21 62° WNW 17:16:22 10° NNE
Cosmos 972 4.3 17:05:35 10° NNW 17:10:35 76° ENE 17:15:28 10° SSE
CZ-4 R/B 1.6 17:07:02 10° SE 17:10:40 41° ENE 17:14:18 10° N
Meteor 1-20 Rocket 4.2 17:09:49 10° N 17:15:20 62° ENE 17:20:44 10° SSE
Okean 2 Rocket 4.1 17:12:24 10° NNE 17:16:11 25° ENE 17:19:56 10° SE
Cosmos 1633 3.0 17:15:28 10° N 17:18:58 40° ENE 17:22:26 10° SSE
Cosmos 1733 Rocket 4.3 17:16:25 10° NNW 17:20:42 47° W 17:24:58 10° SSW
Meteor 1-25 Rocket 4.3 17:15:00 10° N 17:20:52 76° E 17:26:38 10° SSE
Cosmos 1908 Rocket 3.4 17:17:10 10° N 17:21:31 74° E 17:25:50 10° SSE
Cosmos 1354 Rocket 4.4 17:17:25 10° S 17:22:25 45° ESE 17:27:25 10° NNE
Cosmos 405 Rocket 3.9 17:20:16 10° SE 17:23:09 21° E 17:25:14 14° NE
SKYMED 2 4.5 17:21:17 10° NE 17:25:02 28° E 17:28:47 10° SSE
Cosmos 1844 Rocket 4.4 17:21:09 10° WSW 17:26:02 30° NW 17:30:56 10° N
CZ-2C R/B 3.8 17:24:19 10° NNE 17:28:45 57° ESE 17:33:13 10° S
Cosmos 1782 2.9 17:24:52 10° S 17:28:47 52° E 17:32:41 10° NNE
BREEZE-M R/B 2.5 17:26:24 10° WNW 17:28:59 69° SSW 17:33:01 10° SE
Cosmos 1464 Rocket 4.2 17:24:40 10° SSE 17:30:26 45° E 17:36:15 10° NNE
BREEZE-M DEB (TANK) 2.6 17:29:01 10° NW 17:30:55 33° NNE 17:32:12 21° ENE
CZ-2C R/B 4.5 17:28:33 10° SSW 17:33:02 33° W 17:37:39 10° NNW
SPOT 3 Rocket 4.1 17:29:12 10° SE 17:33:56 36° ENE 17:38:41 10° N
Cosmos 44 Rocket 3.5 17:30:05 10° NNW 17:34:49 49° NE 17:39:38 10° SE
Cosmos 292 Rocket 4.0 17:34:35 10° N 17:39:10 45° ENE 17:43:42 10° SE
FENGYUN 3A 4.2 17:34:28 10° SE 17:39:21 36° ENE 17:44:14 10° N
Cosmos 2233 Rocket 4.4 17:35:08 10° SSW 17:41:20 65° W 17:47:31 10° N
Okean 1-7 3.0 17:37:14 10° S 17:41:32 61° E 17:45:54 10° NNE
Sich 1 Rocket 3.9 17:43:34 10° NNW 17:48:00 70° W 17:52:26 10° S
Meteor 1-27 Rocket 4.2 17:43:46 10° SSE 17:49:15 41° E 17:54:47 10° NNE
Lacrosse 5 3.8 17:50:56 10° NW 17:54:11 17° N 17:56:22 13° NNE
Cosmos 44 3.1 17:49:39 10° NNW 17:54:21 78° NE 17:59:18 10° SE
Cosmos 1833 Rocket 2.7 17:49:12 10° NNW 17:54:51 85° WSW 18:00:29 10° SSE
MONITOR-E 4.1 17:52:48 10° SSE 17:55:47 56° ENE 17:58:48 10° N
MTI 3.6 17:56:06 18° NNE 17:58:22 85° E 18:01:36 10° SSW
Cosmos 2369 Rocket 4.0 17:56:19 10° SE 17:57:34 13° ESE 17:57:34 13° ESE
Meteor 1-10 Rocket 4.2 17:54:15 10° S 17:59:56 83° E 18:05:46 10° NNE
USA 116 4.3 17:59:21 10° N 18:03:41 60° WNW 18:07:28 10° SSW
NOAA 12 4.1 18:00:20 10° SSE 18:05:33 61° ENE 18:10:48 10° N
Cosmos 2297 3.8 18:00:18 10° SSW 18:06:01 83° WNW 18:11:15 13° NNE
Cosmos 1782 Rocket 4.0 18:02:02 10° NNW 18:06:19 62° W 18:10:37 10° S
Cosmos 405 2.8 18:03:55 10° N 18:07:30 70° E 18:11:05 10° SSE
Cosmos 2278 Rocket 3.6 18:03:20 10° WSW 18:08:31 36° NW 18:13:44 10° N
Cosmos 540 Rocket 4.0 18:05:16 10° NNW 18:10:23 60° WSW 18:15:26 10° S
ALOS 2.1 18:05:57 10° SSE 18:10:34 67° ENE 18:15:14 10° N
Cosmos 1513 Rocket 4.4 18:04:59 10° S 18:11:17 83° E 18:17:30 10° N
YAOGAN 1 3.3 18:08:48 10° S 18:13:01 53° W 18:17:17 10° NNW
COSMO-SKYMED 1 2.5 18:08:54 10° NNE 18:13:17 87° WNW 18:17:36 10° SSW
Tiangong 1 3.2 18:15:03 10° SSW 18:15:53 15° S 18:15:53 15° S
USA 234 3.5 18:14:25 31° ENE 18:17:21 51° SE 18:23:40 10° SSW
COSMOS 2487 3.6 18:14:45 10° NNW 18:16:47 31° N 18:16:47 31° N
Cosmos 968 Rocket 3.5 18:13:42 10° S 18:18:46 59° ESE 18:20:41 36° NE
Cosmos 1606 4.5 18:18:40 10° SW 18:22:03 31° WNW 18:25:28 10° NNW
Cosmos 1441 Rocket 3.2 18:19:13 10° S 18:23:10 87° W 18:24:29 41° N
CZ-4C R/B 2.8 18:18:34 10° NW 18:25:44 77° NE 18:32:49 14° SE
BREEZE-M DEB (TANK) 4.4 18:26:29 10° WNW 18:28:24 29° NNW 18:28:24 29° NNW
Meteor 1-11 Rocket 3.7 18:23:41 10° N 18:29:34 89° W 18:35:17 10° S
EO 1 Del DPAF 4.1 18:32:20 21° N 18:34:33 48° WNW 18:38:13 10° SSW
DMSP B5D1-3 4.5 18:34:56 21° NNE 18:38:28 87° WNW 18:43:37 10° SSW
Nadezhda 4 Rocket 3.8 18:32:40 10° N 18:38:50 89° E 18:44:58 10° S
Cosmos 2151 Rocket 3.6 18:37:09 10° N 18:41:34 80° W 18:45:59 10° S
ERS-2 4.3 18:39:01 10° SSW 18:42:10 26° W 18:45:19 10° NW
Cosmos 1634 Rocket 4.4 18:37:46 10° SSE 18:42:05 40° SE 18:42:05 40° SE
Cosmos 2082 Rocket 3.9 18:42:11 10° NW 18:47:11 32° WSW 18:52:08 10° SSW
BREEZE-M DEB (TANK) 3.3 18:44:56 10° NW 18:46:38 40° NW 18:46:38 40° NW
OAO 3 Rocket 4.5 18:44:35 10° SW 18:48:44 30° S 18:48:44 30° S
Cosmos 2034 Rocket 4.5 18:42:37 10° SSW 18:48:55 62° W 18:55:13 10° N
Timation 2 Rocket 4.2 18:51:08 10° NNW 18:57:53 72° WSW 19:03:16 16° SSE
Cosmos 1092 Rocket 3.8 18:51:47 10° N 18:57:58 88° E 19:04:10 10° S
USA 229 DEB 3.5 19:03:18 10° SSW 19:10:02 81° ESE 19:10:13 80° E
USA 229 3.5 19:03:24 10° SSW 19:10:09 80° ESE 19:10:16 80° ESE
Lacrosse 5 4.4 19:34:41 10° NNW 19:35:34 14° NNW 19:35:34 14° NNW
Cosmos 2369 Rocket 4.0 19:37:21 10° SSW 19:39:26 24° SW 19:39:26 24° SW
USA 234 4.0 20:01:47 46° WNW 20:01:47 46° WNW 20:06:42 10° WSW
